Tracking 19149 objects as of 21-Apr-2018
HD Live streaming from Space Station
objects crossing your sky now

WESTFORD NEEDLES

Track WESTFORD NEEDLES now!
10-day predictions
WESTFORD NEEDLES is classified as:


NORAD ID: 2377
Int'l Code: 1963-014X
Perigee: 2,963.5 km
Apogee: 4,292.0 km
Inclination: 87.4 °
Period: 165.8 minutes
Semi major axis: 9998 km
RCS: 0.1884 m2 (medium)
Launch date: May 9, 1963
Source: United States (US)
Launch site: AIR FORCE WESTERN TEST RANGE (AFWTR)
aabbcc
Your satellite tracking list
Your tracking list is empty




NASA's NSSDC Master Catalog

Two Line Element Set (TLE):
1  2377U 63014X   18102.56960315 +.00000057 +00000-0 +19876-1 0  9994
2  2377 087.3619 098.4176 0664315 212.6555 143.1522 08.68330786666444
Source of the keplerian elements: AFSPC